[[{"header":{"parameterUnit":"m.s-1","parameterCategory":1,"la1":30.2991,"la2":30.254,"lo1":-89.0895,"lo2":-89.0444,"dy":0.0017,"dx":0.0017,"nx":28,"ny":28,"refTime":"2025-02-09T03:00:00:Z","depth":0,"parameterNumber":2,"parameterNumberName":"U-component_of_WINDS"},"data":[0,0,0,0,0,0,0,0,0,0,0,0,0,0,0,0,0,0,0,0,0,0,0,0,0,0,0,0,0,0,0,0,0,0,0,0,0,0,0,0,0,0,0,0,0,0,0,0,0,0,0,0,0,0,0,0,0,0,-1.3641,-1.3641,0,-1.3639,-1.3639,-1.3639,-1.3613,-1.3613,-1.3612,-1.3612,-1.3612,-1.3613,-1.3613,0,0,0,0,0,0,0,0,0,0,0,0,0,-1.3631,-1.3631,-1.3641,-1.3641,-1.3641,-1.3639,-1.3639,-1.3639,-1.3614,-1.3613,-1.3612,-1.3611,-1.3612,-1.3613,-1.3614,0,0,0,0,0,0,0,0,0,0,0,0,0,-1.3633,-1.3631,-1.3641,-1.3628,-1.3627,-1.3639,-1.3639,-1.3639,-1.3614,-1.3613,-1.3612,-1.3611,-1.3612,-1.3613,-1.3614,-1.3638,0,0,-1.3616,-1.3617,0,0,0,0,0,0,0,0,-1.3632,-1.3633,-1.363,-1.3629,-1.3628,-1.3625,-1.3635,-1.3639,-1.3614,-1.3619,-1.3612,-1.361,-1.3618,-1.3618,-1.362,-1.3638,-1.3638,-1.3617,-1.3617,-1.3617,-1.3618,0,0,0,0,0,0,0,-1.3632,-1.3633,-1.364,-1.363,-1.3629,-1.3625,-1.3624,-1.3636,-1.3624,-1.3618,-1.3617,-1.3616,-1.3617,-1.3619,-1.362,-1.3638,-1.3616,-1.3617,-1.3618,-1.3618,-1.3681,-1.3682,0,0,0,0,0,0,-1.3633,-1.3633,-1.364,-1.364,-1.3628,-1.3626,-1.3625,-1.3627,-1.3624,-1.3622,-1.3617,-1.3615,-1.3618,-1.3618,-1.3619,-1.365,-1.3617,-1.3618,-1.3619,-1.368,-1.3681,-1.3682,0,0,0,0,0,0,-1.3633,-1.3634,-1.3641,-1.3636,-1.3637,-1.3627,-1.363,-1.3628,-1.3629,-1.3623,-1.3621,-1.3621,-1.3617,-1.3618,-1.3634,-1.3649,-1.3619,-1.362,-1.3679,-1.368,-1.3682,-1.3709,0,0,0,0,0,0,-1.3633,-1.3634,-1.3642,-1.3636,-1.3637,-1.3654,-1.3631,-1.3628,-1.3631,-1.3628,-1.3626,-1.3624,-1.3616,-1.3633,-1.3635,-1.365,-1.362,-1.3677,-1.3679,-1.3681,-1.3707,-1.3712,-1.3716,0,0,0,0,0,-1.3633,-1.365,-1.3642,-1.3643,-1.3646,-1.3654,-1.3655,-1.3644,-1.3632,-1.3641,-1.3637,-1.3625,-1.3648,-1.3635,-1.3637,-1.3652,-1.3676,-1.3679,-1.3681,-1.3705,-1.3711,-1.3716,0,0,0,0,0,0,-1.3657,-1.3649,-1.364,-1.3656,-1.3656,-1.365,-1.366,-1.365,-1.3655,-1.3652,-1.364,-1.364,-1.3658,-1.3657,-1.3643,-1.3678,-1.366,-1.3663,-1.3677,-1.3683,-1.3687,-1.3687,-1.3621,0,0,0,0,0,-1.3665,-1.3671,-1.3663,-1.3678,-1.3678,-1.367,-1.3673,-1.3665,-1.3665,-1.3665,-1.3663,-1.3665,-1.3673,-1.3678,-1.3685,-1.3708,-1.3708,-1.372,-1.3724,-1.3728,-1.373,-1.3745,-1.375,-1.3691,-1.3691,-1.3691,0,0,-1.3679,-1.3675,-1.368,-1.3683,-1.3682,-1.3691,-1.367,-1.3679,-1.3686,-1.3667,-1.3682,-1.3681,-1.3683,-1.3703,-1.3712,-1.3702,-1.3747,-1.3731,-1.3734,-1.3734,-1.3748,-1.3753,-1.3758,-1.3692,-1.3692,-1.3692,0,0,-1.371,-1.3708,-1.372,-1.372,-1.372,-1.3714,-1.3718,-1.3714,-1.3712,-1.3727,-1.3714,-1.3724,-1.3737,-1.3739,-1.3742,-1.378,-1.3769,-1.3783,-1.3805,-1.3819,-1.3824,-1.3828,-1.3842,-1.3847,-1.3785,-1.3785,-1.3785,0,-1.3729,-1.3739,-1.3728,-1.3739,-1.3742,-1.3726,-1.374,-1.3741,-1.3743,-1.3747,-1.3737,-1.3755,-1.3755,-1.3777,-1.3786,-1.3789,-1.3794,-1.3782,-1.3824,-1.3828,-1.3831,-1.3845,-1.385,-1.3787,-1.3787,-1.3787,-1.3787,0,-1.3763,-1.3771,-1.3782,-1.3784,-1.3788,-1.3801,-1.3794,-1.38,-1.3793,-1.379,-1.3808,-1.3808,-1.3815,-1.382,-1.3813,-1.3842,-1.3837,-1.3825,-1.3807,-1.3839,-1.3851,-1.3856,-1.3789,-1.3789,-1.3788,-1.3788,0,0,-1.3806,-1.3804,-1.3809,-1.3811,-1.3811,-1.3818,-1.3831,-1.3838,-1.3845,-1.3848,-1.386,-1.3874,-1.3865,-1.3868,-1.3862,-1.3875,-1.3906,-1.3863,-1.3863,-1.3871,-1.394,-1.3948,-1.3954,-1.39,-1.3901,-1.3902,-1.394,0,-1.3836,-1.3857,-1.3849,-1.3872,-1.388,-1.3868,-1.388,-1.3883,-1.3881,-1.389,-1.389,-1.39,-1.3886,-1.3888,-1.3901,-1.39,-1.392,-1.3897,-1.3913,-1.3914,-1.3911,-1.396,-1.3967,-1.4003,-1.3945,-1.3946,-1.3946,0,-1.3873,-1.3878,-1.3901,-1.3902,-1.3906,-1.3916,-1.3924,-1.3932,-1.3937,-1.3935,-1.3941,-1.3934,-1.395,-1.3933,-1.3956,-1.3941,-1.3948,-1.3949,-1.395,-1.395,-1.3931,-1.3961,-1.4014,-1.4019,-1.3954,-1.3953,-1.3952,0,-1.3903,-1.3916,-1.3931,-1.3934,-1.3935,-1.3944,-1.3945,-1.3949,-1.3955,-1.3962,-1.3966,-1.3976,-1.3982,-1.3991,-1.3987,-1.3975,-1.4012,-1.3994,-1.4012,-1.4013,-1.4019,-1.4018,-1.4073,-1.4025,-1.4025,-1.4025,-1.4025,0,-1.3937,-1.3951,-1.3945,-1.3954,-1.3972,-1.3965,-1.3983,-1.3984,-1.3988,-1.3999,-1.399,-1.4001,-1.3996,-1.4008,-1.4006,-1.4027,-1.403,-1.403,-1.4029,-1.403,-1.403,-1.4033,-1.403,-1.4026,-1.4026,-1.4025,-1.4025,0,-1.3971,-1.3967,-1.3984,-1.3985,-1.3987,-1.3999,-1.4001,-1.4012,-1.4011,-1.4026,-1.4029,-1.4029,-1.4043,-1.4041,-1.4056,-1.4055,-1.4081,-1.4077,-1.4079,-1.4078,-1.4096,-1.4094,-1.4153,-1.4161,-1.4109,-1.4109,-1.411,0,-1.3992,-1.4003,-1.4007,-1.4013,-1.4015,-1.4026,-1.4032,-1.4028,-1.4035,-1.4043,-1.4053,-1.4067,-1.4076,-1.41,-1.4102,-1.4115,-1.4111,-1.4131,-1.4113,-1.4114,-1.4112,-1.4111,-1.4112,-1.4134,-1.4135,-1.4135,-1.4136,0,-1.403,-1.4029,-1.4037,-1.4047,-1.4054,-1.4061,-1.4068,-1.4074,-1.4071,-1.408,-1.4094,-1.4102,-1.4119,-1.4133,-1.4146,-1.415,-1.4143,-1.4142,-1.4147,-1.4147,-1.4148,-1.4148,-1.4088,-1.414,-1.414,-1.4139,-1.4139,-1.4139,-1.4059,-1.4069,-1.4073,-1.4084,-1.4089,-1.4096,-1.4106,-1.4108,-1.4119,-1.4131,-1.4129,-1.4145,-1.4154,-1.417,-1.4176,-1.419,-1.4183,-1.419,-1.4191,-1.4193,-1.4195,-1.4147,-1.4192,-1.4192,-1.4192,-1.4192,-1.4192,0,-1.4096,-1.4099,-1.411,-1.4119,-1.4129,-1.4122,-1.413,-1.4139,-1.4153,-1.416,-1.4171,-1.4189,-1.4203,-1.4208,-1.4223,-1.4233,-1.4231,-1.4237,-1.4236,-1.4237,-1.42,-1.4195,-1.4239,-1.4239,-1.4239,-1.4239,-1.4239,-1.4239,-1.4117,-1.4134,-1.4134,-1.4155,-1.4159,-1.4173,-1.4179,-1.4186,-1.4193,-1.4212,-1.4224,-1.4227,-1.4235,-1.425,-1.4264,-1.4266,-1.4272,-1.4279,-1.4279,-1.4244,-1.424,-1.4235,-1.4229,-1.4281,-1.4281,-1.4315,-1.4315,-1.4315]},{"header":{"parameterUnit":"m.s-1","parameterCategory":1,"la1":30.2991,"la2":30.254,"lo1":-89.0895,"lo2":-89.0444,"dy":0.0017,"dx":0.0017,"nx":28,"ny":28,"refTime":"2025-02-09T03:00:00:Z","depth":0,"parameterNumber":3,"parameterNumberName":"V-component_of_WINDS"},"data":[0,0,0,0,0,0,0,0,0,0,0,0,0,0,0,0,0,0,0,0,0,0,0,0,0,0,0,0,0,0,0,0,0,0,0,0,0,0,0,0,0,0,0,0,0,0,0,0,0,0,0,0,0,0,0,0,0,0,-0.1694,-0.1693,0,-0.1643,-0.1642,-0.1642,-0.1684,-0.1686,-0.1688,-0.169,-0.1635,-0.1632,-0.1629,0,0,0,0,0,0,0,0,0,0,0,0,0,-0.1824,-0.1821,-0.1694,-0.1693,-0.1692,-0.1643,-0.1642,-0.1642,-0.1684,-0.1686,-0.1688,-0.1691,-0.1636,-0.1632,-0.1629,0,0,0,0,0,0,0,0,0,0,0,0,0,-0.177,-0.1821,-0.1694,-0.1708,-0.1708,-0.1643,-0.1642,-0.1642,-0.1684,-0.1686,-0.1689,-0.1692,-0.1637,-0.1633,-0.1628,-0.1546,0,0,-0.1614,-0.1612,0,0,0,0,0,0,0,0,-0.1773,-0.1765,-0.1706,-0.1707,-0.1707,-0.1673,-0.1668,-0.1609,-0.1683,-0.1693,-0.169,-0.1693,-0.1645,-0.164,-0.1625,-0.1543,-0.1541,-0.1613,-0.1611,-0.1609,-0.1607,0,0,0,0,0,0,0,-0.1777,-0.1767,-0.1674,-0.1705,-0.1706,-0.1716,-0.1711,-0.1657,-0.1655,-0.1692,-0.1695,-0.1689,-0.1646,-0.1629,-0.1624,-0.154,-0.1614,-0.1609,-0.1607,-0.1605,-0.1389,-0.1387,0,0,0,0,0,0,-0.1779,-0.177,-0.1675,-0.1672,-0.1747,-0.1711,-0.1706,-0.1681,-0.1655,-0.1654,-0.1687,-0.1691,-0.1636,-0.1629,-0.1622,-0.1525,-0.1609,-0.1604,-0.1602,-0.1392,-0.1389,-0.1386,0,0,0,0,0,0,-0.1782,-0.177,-0.1677,-0.1722,-0.1711,-0.1706,-0.1678,-0.1679,-0.1662,-0.1651,-0.1651,-0.167,-0.1638,-0.1628,-0.1565,-0.1524,-0.1602,-0.1598,-0.1396,-0.1391,-0.1387,-0.1329,0,0,0,0,0,0,-0.1785,-0.1771,-0.174,-0.1721,-0.1708,-0.1622,-0.1675,-0.1676,-0.1654,-0.1659,-0.1635,-0.1634,-0.1639,-0.1572,-0.156,-0.1519,-0.1594,-0.1399,-0.1394,-0.1388,-0.1335,-0.1324,-0.1314,0,0,0,0,0,-0.179,-0.1725,-0.1739,-0.1727,-0.167,-0.1619,-0.1612,-0.162,-0.1651,-0.1619,-0.1612,-0.1635,-0.153,-0.1565,-0.1552,-0.1509,-0.1402,-0.1395,-0.1389,-0.134,-0.1326,-0.1314,0,0,0,0,0,0,-0.1739,-0.1723,-0.1738,-0.1665,-0.1643,-0.1626,-0.1588,-0.1605,-0.1573,-0.1579,-0.1589,-0.1583,-0.1517,-0.1506,-0.1545,-0.1428,-0.1471,-0.1461,-0.1438,-0.1424,-0.1414,-0.1419,-0.159,0,0,0,0,0,-0.1719,-0.168,-0.1668,-0.1605,-0.1594,-0.1592,-0.157,-0.1578,-0.1556,-0.1547,-0.1535,-0.1512,-0.1473,-0.1448,-0.1412,-0.1333,-0.1329,-0.1297,-0.1286,-0.1278,-0.127,-0.1228,-0.1214,-0.1364,-0.1364,-0.1364,0,0,-0.1678,-0.1665,-0.1639,-0.1595,-0.1579,-0.1538,-0.1584,-0.1538,-0.1508,-0.1539,-0.1479,-0.147,-0.1444,-0.1373,-0.1341,-0.1362,-0.1228,-0.1269,-0.1263,-0.126,-0.122,-0.1206,-0.1193,-0.1359,-0.136,-0.1361,0,0,-0.1583,-0.1569,-0.1515,-0.1499,-0.1474,-0.1474,-0.1461,-0.1441,-0.1437,-0.1376,-0.14,-0.1363,-0.1296,-0.1278,-0.1259,-0.1157,-0.1176,-0.1144,-0.109,-0.1049,-0.1037,-0.1027,-0.0991,-0.0978,-0.1136,-0.1136,-0.1136,0,-0.1535,-0.1475,-0.1485,-0.1438,-0.1418,-0.1445,-0.1391,-0.1374,-0.1338,-0.1324,-0.1348,-0.1266,-0.125,-0.1176,-0.1151,-0.1134,-0.112,-0.1148,-0.1038,-0.1028,-0.1018,-0.0985,-0.0971,-0.1133,-0.1133,-0.1133,-0.1134,0,-0.1418,-0.1376,-0.1335,-0.1302,-0.1277,-0.1226,-0.1228,-0.1201,-0.1211,-0.1208,-0.1146,-0.1128,-0.109,-0.1072,-0.1081,-0.0999,-0.1013,-0.1037,-0.1081,-0.1001,-0.0969,-0.0956,-0.1128,-0.1129,-0.113,-0.1131,0,0,-0.129,-0.1263,-0.1248,-0.1234,-0.1209,-0.1176,-0.1126,-0.109,-0.1067,-0.1041,-0.1,-0.0943,-0.0966,-0.0945,-0.0952,-0.0916,-0.0837,-0.0945,-0.0945,-0.0927,-0.0746,-0.0729,-0.0714,-0.0849,-0.0847,-0.0845,-0.0749,0,-0.1195,-0.111,-0.1118,-0.1037,-0.0999,-0.1024,-0.0981,-0.096,-0.0955,-0.0921,-0.0916,-0.0876,-0.0908,-0.0896,-0.0862,-0.0854,-0.0801,-0.0861,-0.0812,-0.081,-0.0819,-0.0698,-0.0679,-0.059,-0.0737,-0.0735,-0.0733,0,-0.1073,-0.1045,-0.0961,-0.0942,-0.0926,-0.0888,-0.0855,-0.0822,-0.0799,-0.0798,-0.0775,-0.0788,-0.0737,-0.0781,-0.0711,-0.0752,-0.0732,-0.0725,-0.0722,-0.0718,-0.0768,-0.0692,-0.0561,-0.0548,-0.0714,-0.0715,-0.0717,0,-0.099,-0.0931,-0.0873,-0.086,-0.0836,-0.0808,-0.0797,-0.0777,-0.0755,-0.0725,-0.0711,-0.0676,-0.0657,-0.0629,-0.0632,-0.0663,-0.0561,-0.0605,-0.0559,-0.0559,-0.0538,-0.054,-0.0403,-0.0523,-0.0523,-0.0523,-0.0523,0,-0.0884,-0.0832,-0.0836,-0.08,-0.0743,-0.0751,-0.0693,-0.0685,-0.0667,-0.063,-0.0648,-0.0613,-0.0618,-0.0582,-0.0584,-0.0527,-0.0518,-0.0515,-0.0517,-0.0515,-0.0515,-0.0503,-0.051,-0.0519,-0.052,-0.0521,-0.0522,0,-0.0783,-0.0783,-0.0722,-0.0705,-0.0699,-0.0658,-0.0643,-0.0609,-0.0606,-0.0559,-0.0548,-0.0542,-0.0501,-0.0501,-0.0454,-0.0455,-0.0386,-0.0393,-0.0394,-0.0396,-0.0351,-0.0356,-0.0203,-0.0183,-0.0314,-0.0313,-0.0312,0,-0.0716,-0.0677,-0.0656,-0.0633,-0.062,-0.0583,-0.0561,-0.0567,-0.0542,-0.0514,-0.0483,-0.0444,-0.0414,-0.0347,-0.0338,-0.0302,-0.031,-0.0259,-0.0305,-0.0304,-0.0311,-0.0314,-0.031,-0.025,-0.0249,-0.0247,-0.0247,0,-0.0598,-0.06,-0.0568,-0.0535,-0.0508,-0.0482,-0.0459,-0.0438,-0.0442,-0.0414,-0.0373,-0.0349,-0.0301,-0.0262,-0.0227,-0.0215,-0.0231,-0.0232,-0.022,-0.0218,-0.0221,-0.022,-0.0371,-0.0236,-0.0237,-0.0238,-0.0238,-0.0239,-0.0513,-0.048,-0.046,-0.0423,-0.0406,-0.0383,-0.0351,-0.0344,-0.031,-0.0273,-0.0278,-0.0232,-0.021,-0.0165,-0.015,-0.0114,-0.0132,-0.0114,-0.0109,-0.0105,-0.0101,-0.0225,-0.0107,-0.0108,-0.0108,-0.0108,-0.0108,0,-0.0397,-0.0386,-0.0352,-0.0319,-0.029,-0.0308,-0.0282,-0.0257,-0.0217,-0.0195,-0.0165,-0.0117,-0.008,-0.0068,-0.0031,-0.0005,-0.0011,0.0005,0.0002,0.0005,-0.0087,-0.0102,0.0009,0.0009,0.0009,0.0009,0.0009,0.0009,-0.0334,-0.0279,-0.0278,-0.0214,-0.0203,-0.0159,-0.0143,-0.0123,-0.0106,-0.0052,-0.0022,-0.0014,0.0003,0.0041,0.0075,0.0077,0.0091,0.011,0.011,0.0024,0.0012,0.0,-0.0014,0.0114,0.0114,0.0198,0.0199,0.0199]}]]